Date,TemperatureHighF,TemperatureAvgF,TemperatureLowF,DewpointHighF,DewpointAvgF,DewpointLowF,HumidityHigh,HumidityAvg,HumidityLow,PressureMaxIn,PressureMinIn,WindSpeedMaxMPH,WindSpeedAvgMPH,GustSpeedMaxMPH,PrecipitationSumIn
2013-1-1,36.8,26.9,18.5,21.0,15.6,12.2,82,64,41,30.22,30.06,24,8,24,0.00
2013-1-2,37.3,24.0,11.3,13.4,10.5,6.3,82,59,30,30.25,30.14,15,5,15,0.00
2013-1-3,38.6,25.8,17.4,14.9,10.6,6.2,72,53,37,30.33,30.21,20,8,20,0.00
2013-1-4,34.9,22.8,13.3,11.2,5.6,2.7,68,49,31,30.32,30.17,14,6,14,0.00
2013-1-5,44.6,28.7,16.0,10.2,7.5,4.6,63,42,21,30.36,30.23,12,4,12,0.00
2013-1-6,42.9,28.6,17.4,11.0,8.2,4.9,59,43,25,30.38,30.13,15,6,15,0.00
2013-1-7,50.0,36.8,29.3,19.7,14.5,10.3,59,41,27,30.14,29.99,18,6,18,0.00
2013-1-8,50.3,34.9,21.1,19.5,15.6,11.8,74,48,22,30.25,30.00,24,11,24,0.00
2013-1-9,53.2,36.6,22.3,17.6,15.1,12.7,69,44,23,30.41,30.16,14,6,14,0.00
2013-1-10,45.9,34.3,24.3,17.0,14.4,12.4,62,45,30,30.17,29.80,18,6,18,0.00
2013-1-11,41.3,32.5,16.1,25.4,8.0,-6.7,61,38,19,29.96,29.70,34,12,34,0.00
2013-1-12,33.5,19.8,9.5,1.6,-3.0,-9.5,58,38,20,30.03,29.89,18,6,18,0.00
2013-1-13,31.0,19.0,6.5,5.8,-0.3,-4.5,64,44,29,30.10,29.97,14,4,14,0.00
2013-1-14,27.8,21.3,14.9,22.9,12.0,0.7,87,68,43,30.10,29.97,17,6,17,0.04
2013-1-15,26.1,16.8,5.8,6.2,2.6,-1.9,75,54,38,30.33,30.09,23,7,23,0.00
2013-1-16,40.8,24.1,9.5,16.4,8.7,1.7,72,53,35,30.41,30.29,14,4,14,0.01
2013-1-17,49.1,31.6,15.0,20.2,14.8,8.6,77,52,28,30.49,30.37,12,5,12,0.00
2013-1-18,51.8,36.0,23.0,20.8,18.2,14.8,72,51,28,30.39,30.24,12,5,12,0.00
2013-1-19,54.7,35.3,22.6,22.2,18.8,15.5,75,54,23,30.38,30.27,13,5,13,0.00
2013-1-20,53.4,36.2,21.8,19.1,15.6,7.1,78,48,16,30.34,30.19,12,5,12,0.00
2013-1-21,55.5,36.8,21.7,19.5,14.1,9.6,65,41,20,30.33,30.21,16,6,16,0.00
2013-1-22,60.7,40.8,24.9,19.2,15.2,3.0,71,40,10,30.33,30.23,24,6,24,0.00
2013-1-23,56.9,39.5,22.4,16.4,12.8,10.3,66,37,16,30.39,30.28,12,5,12,0.00
2013-1-24,61.2,41.2,25.6,20.5,13.7,9.8,54,35,18,30.33,30.20,12,4,12,0.00
2013-1-25,58.3,47.7,38.9,40.2,35.1,30.3,75,62,48,30.31,30.20,5,2,10,0.00
2013-1-26,55.2,47.8,42.2,49.7,41.6,35.8,91,79,64,30.20,29.96,23,4,23,0.20
2013-1-27,63.1,51.1,40.0,42.2,39.1,34.4,91,66,35,30.05,29.96,22,6,22,0.00
2013-1-28,55.3,44.4,37.3,39.3,33.3,19.5,88,66,36,29.99,29.81,37,10,37,0.02
2013-1-29,37.2,32.4,27.4,22.3,15.9,6.0,73,52,30,30.01,29.79,43,17,43,0.00
2013-1-30,44.0,32.7,21.5,18.4,15.5,9.7,72,51,31,30.22,30.00,26,12,26,0.00
2013-1-31,56.7,37.7,23.0,27.4,21.7,18.0,83,56,23,30.31,30.20,20,5,20,0.00
2013-2-1,61.2,40.9,23.1,25.3,20.8,15.6,81,49,21,30.30,30.18,20,6,20,0.00
2013-2-2,62.2,42.7,28.1,25.9,21.6,18.2,73,47,20,30.39,30.29,12,4,12,0.00
2013-2-3,54.1,41.3,30.8,31.0,22.3,17.9,66,49,26,30.32,30.05,16,4,16,0.00
2013-2-4,63.1,45.1,33.2,32.5,26.5,21.6,79,51,22,30.16,30.05,22,8,22,0.00
2013-2-5,67.1,44.6,30.5,26.3,21.5,13.8,70,45,13,30.15,30.03,16,4,16,0.00
2013-2-6,60.9,43.8,27.0,28.8,22.7,18.8,71,46,28,30.06,29.92,7,3,14,0.00
2013-2-7,63.5,47.1,34.4,29.2,20.8,11.7,70,38,16,30.19,30.06,12,4,12,0.00
2013-2-8,59.0,45.8,35.6,25.4,21.7,18.8,53,39,26,30.15,29.84,26,9,26,0.00
2013-2-9,49.2,36.4,28.2,25.6,16.7,5.8,66,47,21,29.90,29.72,36,12,36,0.00
2013-2-10,44.6,34.0,25.5,23.9,15.9,10.6,79,50,26,30.00,29.89,18,6,18,0.00
2013-2-11,36.6,25.4,21.3,22.9,19.9,17.3,86,80,54,30.05,30.00,8,3,8,0.00
2013-2-12,45.0,33.9,23.1,22.4,13.0,6.4,75,44,22,30.18,29.99,25,11,25,0.00
2013-2-13,52.2,35.7,21.3,18.8,14.3,9.9,62,43,24,30.18,30.07,24,8,24,0.00
2013-2-14,55.7,40.4,25.7,21.7,19.0,16.6,69,44,23,30.22,30.08,30,11,30,0.00
2013-2-15,54.1,39.0,24.7,24.1,14.3,3.3,73,42,13,30.36,30.22,32,8,32,0.00
2013-2-16,61.6,41.4,24.4,15.0,8.8,-2.2,57,30,8,30.41,30.16,20,5,20,0.00
2013-2-17,60.2,43.1,21.5,11.4,5.9,1.9,47,24,10,30.17,29.80,18,7,18,0.00
2013-2-18,56.8,43.1,31.5,18.3,0.6,-18.0,52,21,5,30.12,29.88,23,11,23,0.00
2013-2-19,59.6,42.3,26.6,35.8,7.7,-8.7,70,28,11,30.12,29.81,34,11,34,0.00
2013-2-20,51.8,43.0,34.7,36.2,30.0,16.6,79,63,27,29.83,29.62,28,11,28,0.00
2013-2-21,53.2,38.0,30.1,29.3,23.8,16.2,92,60,26,29.94,29.65,24,7,24,0.01
2013-2-22,44.8,35.1,27.5,24.2,20.7,12.1,74,57,29,30.08,29.93,28,6,28,0.00
2013-2-23,49.8,36.0,19.8,19.6,13.0,8.5,66,41,20,30.10,29.79,20,6,20,0.00
2013-2-24,44.4,35.0,29.2,25.3,16.1,4.8,85,49,24,29.93,29.73,37,15,37,0.01
2013-2-25,54.0,37.3,24.9,25.0,11.7,3.4,82,39,15,30.10,29.93,26,11,26,0.00
2013-2-26,50.3,34.3,22.8,16.0,7.0,-8.3,56,35,12,30.11,29.89,36,10,36,0.00
2013-2-27,49.7,33.6,21.0,12.1,5.6,-1.4,54,33,13,30.28,30.11,16,5,16,0.00
2013-2-28,56.8,38.5,23.6,10.5,5.0,-3.8,44,27,9,30.32,30.22,21,8,21,0.00
2013-3-1,63.2,47.5,33.9,21.3,15.5,6.3,42,28,17,30.37,30.25,28,11,28,0.00
2013-3-2,70.4,48.9,30.5,25.4,20.5,17.3,61,36,15,30.42,30.21,20,5,20,0.00
2013-3-3,71.0,50.3,33.5,25.0,17.0,-2.0,53,30,6,30.22,29.94,25,7,25,0.00
2013-3-4,66.2,54.1,42.8,23.9,20.9,18.0,41,28,18,30.16,29.89,31,9,31,0.00
2013-3-5,62.4,47.7,30.9,24.0,18.1,7.1,68,35,12,30.32,30.16,21,7,21,0.00
2013-3-6,66.4,52.5,41.0,26.9,21.4,13.7,42,30,19,30.20,30.00,20,6,20,0.00
2013-3-7,71.7,55.9,33.6,22.8,17.2,12.6,43,24,12,30.12,29.96,15,5,15,0.00
2013-3-8,61.4,47.1,37.4,43.6,25.9,13.0,88,49,20,30.03,29.84,26,7,26,0.10
2013-3-9,48.1,39.0,32.6,35.9,26.1,18.9,85,61,33,30.03,29.85,26,8,26,0.01
2013-3-10,56.5,39.6,27.3,30.9,23.7,15.8,87,58,24,30.18,30.02,20,6,20,0.00
2013-3-11,66.9,45.8,28.0,22.0,18.3,9.6,66,38,12,30.21,30.05,22,7,22,0.00
2013-3-12,72.1,53.2,35.8,26.4,22.2,19.3,56,32,14,30.27,30.10,28,8,28,0.00
2013-3-13,75.9,53.4,34.8,28.5,22.9,16.1,63,35,13,30.37,30.23,17,6,17,0.00
2013-3-14,80.5,57.2,40.4,26.4,19.5,12.8,47,26,9,30.37,30.22,12,5,12,0.00
2013-3-15,81.3,61.3,43.5,22.0,15.4,8.1,35,19,7,30.25,30.02,12,5,12,0.00
2013-3-16,72.6,58.4,43.5,35.1,22.0,15.5,51,26,14,30.03,29.86,30,9,30,0.00
2013-3-17,72.1,54.7,40.0,37.6,22.0,-11.2,73,37,4,29.97,29.79,36,9,36,0.00
2013-3-18,70.4,54.6,36.8,12.2,7.8,2.2,34,17,7,30.06,29.93,29,9,29,0.00
2013-3-19,65.5,50.5,41.0,17.3,10.6,4.0,32,20,12,30.22,30.04,22,6,22,0.00
2013-3-20,64.0,50.3,33.8,27.9,19.2,14.2,47,30,18,30.27,29.94,18,7,18,0.00
2013-3-21,74.8,60.2,47.8,33.7,19.4,-3.8,47,25,5,29.96,29.74,39,13,39,0.00
2013-3-22,68.6,52.5,36.2,28.0,12.2,4.0,38,21,9,29.91,29.73,28,8,28,0.00
2013-3-23,52.4,41.1,29.1,27.7,2.7,-13.9,50,22,8,30.12,29.80,39,14,39,0.00
2013-3-24,57.2,37.9,21.4,1.7,-3.8,-11.7,31,18,9,30.15,29.95,34,8,34,0.00
2013-3-25,59.5,41.7,24.7,12.2,8.4,0.2,50,27,13,30.23,30.08,23,8,23,0.00
2013-3-26,66.9,48.8,31.2,15.0,10.6,6.9,36,23,11,30.22,30.01,20,10,20,0.00
2013-3-27,76.2,58.6,41.4,16.8,12.2,5.8,33,18,7,30.13,30.01,21,7,21,0.00
2013-3-28,77.0,60.7,44.2,24.3,15.2,8.0,27,18,8,30.18,30.07,26,6,26,0.00
2013-3-29,77.5,60.2,45.3,24.4,19.0,14.1,33,21,10,30.23,30.09,18,6,18,0.00
2013-3-30,76.2,59.9,40.0,27.6,20.7,16.3,42,24,11,30.22,30.04,20,6,20,0.00
2013-3-31,77.2,61.5,48.2,33.2,28.0,25.3,45,29,16,30.17,30.02,14,5,14,0.00
2013-4-1,76.6,62.3,46.0,28.1,18.6,2.6,44,22,7,30.12,29.92,23,6,23,0.00
2013-4-2,70.6,56.3,44.6,28.7,17.4,-2.7,46,23,6,30.05,29.89,33,8,33,0.00
2013-4-3,70.4,53.6,38.6,32.2,26.6,18.2,68,39,14,30.17,30.04,22,7,22,0.00
2013-4-4,76.1,57.6,38.4,31.7,21.4,11.7,60,30,9,30.26,30.10,16,5,16,0.00
2013-4-5,77.7,62.7,47.2,19.9,14.9,6.7,30,17,7,30.15,29.90,26,8,26,0.00
2013-4-6,78.2,64.4,48.0,26.9,21.7,15.3,38,21,10,30.07,29.90,23,7,23,0.00
2013-4-7,78.8,65.8,49.6,27.5,20.7,13.6,37,19,9,29.99,29.84,24,9,24,0.00
2013-4-8,77.3,64.4,50.9,30.3,22.2,10.7,39,21,8,29.86,29.51,41,15,41,0.00
2013-4-9,54.2,47.3,40.7,36.9,32.1,26.9,80,56,39,29.92,29.55,26,11,26,0.01
2013-4-10,51.6,42.8,37.4,35.6,25.6,18.9,85,53,34,30.02,29.92,22,8,22,0.00
2013-4-11,68.7,49.9,31.2,31.3,24.4,16.0,59,39,21,30.02,29.89,30,10,30,0.00
2013-4-12,73.2,58.4,45.3,34.9,29.3,22.0,61,36,17,30.01,29.90,18,5,18,0.00
2013-4-13,77.8,61.7,40.5,27.5,20.5,12.3,49,24,10,29.99,29.76,24,8,24,0.00
2013-4-14,80.4,66.3,54.1,25.8,22.8,17.3,30,20,10,29.81,29.71,33,13,33,0.00
2013-4-15,82.1,66.5,49.9,26.6,19.2,8.1,34,18,6,29.86,29.69,34,13,34,0.00
2013-4-16,81.4,67.2,53.8,25.9,15.7,-1.2,27,16,4,29.90,29.73,36,15,36,0.00
2013-4-17,63.1,53.5,39.7,28.8,21.1,6.8,43,29,12,30.02,29.77,30,12,30,0.00
2013-4-18,53.6,41.9,30.1,17.6,7.4,0.2,44,26,12,30.23,30.02,29,13,29,0.00
2013-4-19,67.8,47.1,29.3,9.7,5.8,1.5,36,20,8,30.31,30.04,16,6,16,0.00
2013-4-20,72.5,56.4,41.7,21.3,12.0,2.8,32,18,9,30.09,29.93,32,9,32,0.00
2013-4-21,77.6,58.4,38.2,26.0,17.5,-0.5,47,24,5,30.19,30.03,24,7,24,0.00
2013-4-22,85.0,65.8,44.5,20.5,14.2,6.9,32,16,6,30.08,29.87,26,9,26,0.00
2013-4-23,69.7,58.1,41.4,30.8,17.0,-14.8,56,24,5,30.15,29.91,34,11,34,0.00
2013-4-24,70.8,50.5,29.7,21.8,17.7,12.3,61,32,12,30.23,30.07,20,7,20,0.00
2013-4-25,77.3,61.1,48.5,31.4,24.4,11.1,39,26,9,30.17,29.91,31,10,31,0.00
2013-4-26,79.4,62.1,45.0,31.8,20.2,-4.0,51,26,4,30.24,30.08,23,7,23,0.00
2013-4-27,80.5,62.7,45.1,30.5,13.3,-12.5,43,20,3,30.28,30.10,17,7,17,0.00
2013-4-28,84.0,64.3,43.3,15.4,5.9,-4.8,24,12,4,30.16,29.96,18,6,18,0.00
2013-4-29,88.3,68.2,46.9,18.3,13.1,4.5,27,13,6,30.04,29.84,21,6,21,0.00
2013-4-30,89.2,70.7,51.6,23.6,15.1,4.6,27,14,5,29.96,29.82,23,8,23,0.00
2013-5-1,85.1,70.3,52.4,28.9,13.2,-5.9,40,12,5,30.24,29.91,33,10,33,0.00
2013-5-2,65.8,51.3,38.8,29.5,19.4,10.5,58,32,12,30.47,30.22,18,8,18,0.00
2013-5-3,68.0,52.0,34.0,18.9,14.1,10.0,41,24,11,30.40,30.05,16,7,16,0.00
2013-5-4,78.3,61.5,42.4,16.2,11.0,6.7,27,15,7,30.08,29.95,30,9,30,0.00
2013-5-5,74.3,63.5,53.2,32.9,21.0,10.0,30,20,13,30.19,30.05,28,10,28,0.00
2013-5-6,72.2,62.3,55.6,38.9,26.8,16.7,45,26,19,30.09,30.02,25,8,25,0.00
2013-5-7,76.8,62.8,47.0,36.1,30.8,24.5,50,32,16,30.11,29.95,26,6,26,0.00
2013-5-8,74.7,62.0,47.7,36.6,27.3,17.4,61,30,13,30.10,30.00,22,7,22,0.00
2013-5-9,76.4,61.6,48.3,31.6,26.0,20.3,41,27,14,30.17,30.03,25,7,25,0.00
2013-5-10,73.7,60.1,50.8,43.5,36.8,31.1,68,43,24,30.33,30.14,24,6,24,0.01
2013-5-11,74.4,60.3,47.3,44.8,37.5,28.4,82,48,19,30.35,30.28,22,8,22,0.00
2013-5-12,84.0,64.2,46.0,36.8,32.5,25.7,61,35,13,30.37,30.18,20,5,20,0.00
2013-5-13,85.0,68.7,50.2,34.3,30.0,24.7,46,26,12,30.32,30.16,15,5,15,0.00
2013-5-14,88.4,70.5,52.5,43.7,28.0,20.2,41,23,10,30.21,29.99,30,6,30,0.00
2013-5-15,92.2,73.1,63.6,43.8,36.2,25.0,48,29,10,30.08,29.93,38,6,38,0.01
2013-5-16,90.0,72.6,51.9,29.7,20.0,4.3,39,17,5,30.10,29.93,20,6,20,0.00
2013-5-17,88.5,73.4,53.7,34.2,19.1,8.4,33,14,7,30.10,29.93,23,7,23,0.00
2013-5-18,79.1,70.1,56.6,31.4,20.0,10.9,30,15,8,30.09,29.91,31,12,31,0.00
2013-5-19,78.8,65.8,55.6,36.7,30.2,16.1,46,28,10,30.05,29.94,34,12,34,0.00
2013-5-20,79.6,65.6,49.7,35.3,28.8,15.3,55,28,10,30.07,29.92,31,10,31,0.00
2013-5-21,83.9,65.9,46.5,35.1,29.0,18.0,58,30,9,30.12,29.95,26,6,26,0.00
2013-5-22,87.3,71.8,51.7,28.0,21.0,10.3,38,17,6,30.04,29.89,18,6,18,0.00
2013-5-23,91.7,75.3,55.9,31.5,17.2,0.5,25,12,4,30.08,29.92,29,7,29,0.00
2013-5-24,88.9,75.3,59.3,51.3,33.4,15.6,58,28,8,30.18,30.00,22,7,22,0.00
2013-5-25,92.7,75.0,55.0,37.3,20.2,-1.1,31,15,3,30.17,29.96,21,6,21,0.00
2013-5-26,89.8,75.4,58.6,26.2,12.0,-4.8,22,10,3,30.15,29.97,21,7,21,0.00
2013-5-27,87.1,71.1,55.9,23.6,12.8,-0.8,22,11,4,30.10,29.92,29,7,29,0.00
2013-5-28,87.1,71.9,50.7,23.9,14.0,-0.2,27,13,4,29.97,29.75,25,7,25,0.00
2013-5-29,85.3,72.8,60.3,38.5,22.3,3.0,39,18,5,29.88,29.76,33,11,33,0.00
2013-5-30,90.4,73.9,54.8,29.0,20.5,12.7,25,15,6,30.00,29.88,29,10,29,0.00
2013-5-31,89.4,76.7,64.0,39.3,24.2,1.8,37,17,6,30.09,29.96,36,13,36,0.00
2013-6-1,87.5,72.5,51.3,30.3,9.8,-5.2,23,10,3,30.17,30.06,20,6,20,0.00
2013-6-2,86.7,74.2,62.1,47.3,35.5,27.6,37,25,17,30.20,29.97,33,7,33,0.01
2013-6-3,92.9,76.9,63.2,50.8,35.6,6.6,56,30,5,30.10,29.92,25,10,25,0.00
2013-6-4,93.2,78.1,58.9,30.1,18.4,-0.9,23,12,3,30.10,29.95,26,8,26,0.00
2013-6-5,93.5,77.6,63.6,44.3,31.2,14.7,38,20,6,30.10,29.96,22,8,22,0.00
2013-6-6,91.1,74.0,56.8,45.4,38.7,23.4,56,31,10,30.14,29.98,21,8,21,0.00
2013-6-7,93.8,74.5,61.1,52.1,43.6,26.0,67,38,9,30.14,29.92,29,8,29,0.00
2013-6-8,98.7,79.5,59.5,45.7,34.9,19.0,58,27,6,30.04,29.89,29,10,29,0.00
2013-6-9,97.0,80.8,67.7,48.9,40.4,22.1,46,26,7,30.14,29.99,14,6,14,0.00
2013-6-10,101.7,85.7,70.4,49.2,37.5,20.3,43,22,6,30.15,29.99,26,8,26,0.00
2013-6-11,103.0,87.8,69.3,36.7,16.1,3.1,27,8,3,30.17,30.01,23,7,23,0.00
2013-6-12,103.6,84.7,61.5,37.0,19.6,7.1,26,11,3,30.20,30.07,22,5,22,0.00
2013-6-13,101.4,83.2,67.8,45.8,34.9,16.7,32,19,5,30.20,30.04,28,7,28,0.01
2013-6-14,97.4,80.3,68.5,54.5,46.9,30.7,47,32,11,30.15,29.99,31,7,31,0.00
2013-6-15,98.1,78.9,61.4,52.2,41.7,25.4,66,33,8,30.21,30.05,41,10,41,0.00
2013-6-16,94.3,80.0,68.0,50.1,40.5,31.4,40,26,11,30.23,30.09,39,7,39,0.01
2013-6-17,94.5,79.8,64.4,47.0,39.0,33.0,41,25,13,30.23,30.03,24,6,24,0.00
2013-6-18,91.6,79.3,64.4,53.3,46.3,37.5,62,34,16,30.23,30.00,21,8,21,0.00
2013-6-19,98.5,82.2,61.4,47.9,24.0,0.4,46,18,3,30.10,29.91,24,7,24,0.00
2013-6-20,97.8,80.8,60.2,44.6,16.1,-7.4,46,13,3,30.12,29.94,22,6,22,0.00
2013-6-21,96.3,78.6,59.5,45.9,17.5,-0.9,37,13,3,30.17,29.96,20,7,20,0.00
2013-6-22,95.6,77.8,59.5,26.1,15.1,0.5,21,11,3,30.13,29.98,30,7,30,0.00
2013-6-23,94.4,83.3,59.0,22.1,13.1,-4.6,20,8,3,30.12,29.92,24,7,24,0.00
2013-6-24,96.9,80.8,63.9,28.7,12.0,-3.0,19,9,3,30.11,29.97,23,8,23,0.00
2013-6-25,96.9,80.9,60.6,31.1,20.5,9.6,22,12,5,30.17,30.04,18,6,18,0.00
2013-6-26,102.7,84.0,63.0,34.1,26.3,16.5,32,14,5,30.22,30.09,18,4,18,0.00
2013-6-27,107.8,88.3,67.0,37.4,26.7,8.4,26,13,3,30.25,30.11,20,5,20,0.00
2013-6-28,99.2,85.5,75.0,52.7,42.6,-8.9,45,24,13,30.33,30.18,34,10,34,0.01
2013-6-29,100.7,81.4,67.7,50.3,44.9,33.2,52,31,10,30.28,30.10,28,8,28,0.00
2013-6-30,99.4,81.1,66.9,51.4,45.8,34.9,48,31,12,30.28,30.05,33,7,33,0.01
2013-7-1,91.6,74.8,61.6,57.5,51.3,43.3,79,48,20,30.32,30.16,22,6,22,0.02
2013-7-2,88.9,73.4,62.1,61.7,49.1,42.3,63,44,22,30.32,30.11,30,7,30,0.04
2013-7-3,88.2,72.5,61.1,61.0,53.9,43.3,83,56,24,30.27,30.01,38,6,38,0.19
2013-7-4,94.7,78.0,61.6,57.5,51.3,40.4,81,44,16,30.12,30.00,22,6,22,0.00
2013-7-5,96.1,77.7,66.6,63.0,54.2,48.7,84,47,21,30.13,29.96,33,7,33,0.55
2013-7-6,94.8,75.1,65.0,62.7,57.1,44.0,81,59,19,30.16,29.99,28,7,28,0.02
2013-7-7,97.8,80.6,66.3,61.4,55.0,43.4,83,47,18,30.17,30.04,15,6,15,0.02
2013-7-8,96.7,80.5,70.6,62.1,54.3,47.0,74,43,19,30.30,30.14,24,7,24,0.02
2013-7-9,97.6,79.9,67.4,63.1,58.2,49.9,82,51,21,30.30,30.14,25,5,25,0.01
2013-7-10,96.6,82.7,70.4,58.3,53.6,46.6,62,39,19,30.27,30.11,28,6,28,0.00
2013-7-11,89.3,78.8,69.9,61.0,56.0,47.4,68,48,24,30.29,30.08,18,8,18,0.00
2013-7-12,91.3,78.2,67.0,61.1,56.8,51.4,76,50,26,30.20,30.09,16,6,16,0.00
2013-7-13,96.3,81.5,70.7,59.9,54.8,45.3,66,42,19,30.23,30.09,25,6,25,0.01
2013-7-14,100.7,80.4,68.2,63.1,55.3,44.6,83,48,17,30.23,30.01,24,6,25,0.15
2013-7-15,76.2,70.6,66.8,63.1,57.4,50.2,86,65,46,30.23,30.15,20,7,20,0.01
2013-7-16,85.4,72.1,62.9,52.3,48.8,45.3,65,45,25,30.30,30.19,23,6,23,0.00
2013-7-17,82.2,71.7,60.9,57.1,52.1,45.5,82,53,28,30.37,30.26,20,6,20,0.01
2013-7-18,86.4,74.2,62.2,55.8,53.6,50.6,75,51,32,30.32,30.16,17,7,17,0.00
2013-7-19,91.9,74.7,65.8,63.9,57.8,53.5,81,57,32,30.24,30.09,21,6,21,0.03
2013-7-20,89.4,75.2,65.3,61.1,58.4,51.3,85,59,32,30.18,30.04,24,8,24,0.11
2013-7-21,92.9,77.6,67.7,60.2,55.7,46.3,72,50,22,30.15,30.03,21,6,21,0.00
2013-7-22,95.3,81.2,68.0,57.8,52.0,44.0,64,40,18,30.16,30.04,15,5,15,0.00
2013-7-23,100.1,82.3,70.6,55.7,51.0,43.8,56,36,17,30.18,30.06,23,5,23,0.01
2013-7-24,94.0,75.9,66.5,64.0,54.1,45.9,77,49,24,30.26,30.13,30,5,30,0.14
2013-7-25,86.1,74.6,64.7,61.1,58.5,56.9,80,59,39,30.29,30.14,25,7,25,0.00
2013-7-26,90.4,72.5,56.6,62.3,59.4,53.5,95,68,33,30.37,30.20,45,8,45,1.82
2013-7-27,85.1,72.5,60.5,62.2,57.7,50.4,93,63,32,30.35,30.12,16,6,16,0.00
2013-7-28,90.4,76.0,67.3,65.5,59.2,50.0,81,59,27,30.15,30.04,23,6,23,0.13
2013-7-29,93.1,77.3,64.2,62.0,54.1,43.7,86,51,19,30.22,30.11,23,7,23,0.03
2013-7-30,95.2,80.8,64.4,52.9,48.0,38.2,63,35,15,30.34,30.22,13,4,13,0.00
2013-7-31,97.3,82.8,68.1,54.1,47.5,40.9,49,31,15,30.34,30.19,24,6,24,0.00
2013-8-1,89.2,76.6,68.5,64.7,56.8,-14.9,84,53,3,30.32,30.20,20,6,20,0.05
2013-8-2,93.7,76.2,64.3,63.7,59.3,50.0,89,62,25,30.26,30.09,26,5,26,0.17
2013-8-3,91.7,77.4,63.3,62.0,57.6,51.3,88,55,27,30.26,30.14,12,5,12,0.00
2013-8-4,95.5,79.4,64.8,62.3,57.6,48.4,88,51,23,30.30,30.13,22,7,22,0.36
2013-8-5,93.2,74.9,64.9,65.8,59.4,52.8,83,62,27,30.26,30.11,24,5,24,0.25
2013-8-6,89.6,75.4,66.4,64.0,55.6,51.3,69,52,29,30.18,30.11,22,6,22,0.01
2013-8-7,85.0,72.8,62.5,58.2,55.3,49.3,82,56,31,30.19,30.10,24,8,24,0.00
2013-8-8,89.1,74.7,63.3,57.8,51.8,41.7,77,49,21,30.18,30.09,25,8,25,0.00
2013-8-9,90.6,75.6,62.3,52.8,46.9,36.1,64,39,16,30.26,30.17,22,8,22,0.00
2013-8-10,85.5,71.4,61.7,56.1,52.0,43.3,81,53,30,30.37,30.24,30,9,30,0.15
2013-8-11,85.0,71.5,61.4,58.5,54.3,45.4,85,58,27,30.36,30.19,14,5,14,0.00
2013-8-12,85.4,72.8,66.0,62.0,56.9,53.4,74,59,35,30.30,30.19,16,6,16,0.01
2013-8-13,90.6,75.7,64.8,61.0,53.0,43.1,75,48,22,30.28,30.17,20,5,20,0.06
2013-8-14,90.1,75.2,63.9,60.1,53.2,40.9,78,50,20,30.30,30.15,28,5,28,0.00
2013-8-15,92.2,76.6,64.5,57.1,51.3,37.7,68,45,17,30.28,30.16,17,5,17,0.00
2013-8-16,95.9,80.1,62.0,53.6,46.9,35.3,66,35,13,30.28,30.15,18,5,18,0.00
2013-8-17,97.2,82.7,69.9,53.6,46.5,39.6,46,30,15,30.27,30.11,22,6,22,0.00
2013-8-18,95.8,81.9,71.7,53.4,48.9,42.3,48,33,17,30.26,30.12,15,5,15,0.00
2013-8-19,97.3,80.3,68.3,57.0,50.7,43.3,60,38,17,30.25,30.11,22,7,22,0.00
2013-8-20,93.1,76.8,62.6,58.9,55.3,48.1,80,51,22,30.25,30.10,18,5,18,0.00
2013-8-21,90.5,79.2,66.3,57.1,53.0,47.6,67,43,25,30.25,30.13,17,5,17,0.00
2013-8-22,93.7,80.7,66.2,53.2,48.6,41.0,58,34,20,30.26,30.12,12,5,12,0.00
2013-8-23,89.3,76.8,63.6,50.9,45.2,38.8,42,33,23,30.23,30.11,20,7,20,0.00
2013-8-24,87.6,74.8,63.9,63.4,55.7,47.7,82,54,30,30.26,30.16,24,6,24,0.05
2013-8-25,86.2,74.4,65.7,66.9,59.4,54.3,84,62,35,30.33,30.24,21,4,21,0.09
2013-8-26,90.0,76.0,64.6,65.8,57.1,51.5,78,55,28,30.33,30.20,29,5,29,0.11
2013-8-27,90.1,76.4,63.1,58.5,53.2,46.8,76,48,26,30.28,30.13,25,4,25,0.00
2013-8-28,90.2,76.0,63.0,56.9,51.8,47.7,65,45,26,30.27,30.16,20,6,20,0.00
2013-8-29,88.1,77.0,70.0,59.0,55.5,51.5,64,48,31,30.31,30.23,20,7,20,0.00
2013-8-30,95.4,79.7,66.6,62.4,55.4,46.8,75,47,22,30.29,30.15,14,5,14,0.00
2013-8-31,95.9,81.6,67.1,58.8,52.1,43.4,68,39,17,30.21,30.07,15,4,15,0.00
2013-9-1,97.0,80.5,68.4,57.1,50.8,45.2,57,37,18,30.25,30.10,30,7,30,0.00
2013-9-2,91.0,79.0,70.1,57.6,54.7,50.3,61,45,28,30.28,30.14,21,6,21,0.00
2013-9-3,94.4,79.2,67.4,59.5,54.7,48.3,73,46,22,30.28,30.15,18,5,18,0.00
2013-9-4,95.1,79.7,65.9,54.5,47.3,35.7,55,35,19,30.33,30.20,13,5,13,0.00
2013-9-5,94.2,78.6,62.1,45.1,39.7,35.0,45,26,15,30.34,30.22,14,4,14,0.00
2013-9-6,92.3,76.9,61.8,47.6,39.4,34.9,40,27,16,30.33,30.16,15,5,15,0.00
2013-9-7,92.8,77.5,63.4,53.5,48.6,42.3,52,37,23,30.27,30.12,17,4,17,0.00
2013-9-8,91.9,76.6,63.5,54.2,48.4,44.6,52,38,22,30.20,30.03,20,5,20,0.00
2013-9-9,89.3,75.4,63.5,59.2,51.6,44.1,68,46,26,30.13,29.98,26,6,26,0.04
2013-9-10,74.2,66.1,61.5,62.3,59.0,54.8,96,79,54,30.19,30.08,16,4,16,0.68
2013-9-11,83.8,70.7,61.9,63.8,58.6,49.1,95,70,32,30.23,30.13,13,4,13,0.00
2013-9-12,71.4,65.5,60.7,66.4,61.0,57.2,95,86,75,30.24,30.14,17,6,17,0.69
2013-9-13,73.1,64.2,59.8,61.7,59.8,57.3,97,86,62,30.20,30.09,15,5,15,0.52
2013-9-14,75.9,65.0,58.0,62.4,58.6,54.7,97,81,53,30.17,30.07,20,4,20,2.14
2013-9-15,80.2,66.6,56.8,61.7,56.1,50.0,95,72,37,30.23,30.13,12,4,12,0.18
2013-9-16,81.4,68.4,56.5,58.4,54.8,50.7,89,65,36,30.29,30.17,14,4,14,0.00
2013-9-17,82.0,69.7,59.5,59.9,56.3,49.3,88,65,34,30.23,30.07,17,6,17,0.00
2013-9-18,83.5,71.3,64.2,61.2,57.0,49.2,84,63,33,30.13,30.02,17,6,17,0.00
2013-9-19,87.8,71.5,60.3,59.6,52.6,38.4,89,56,24,30.13,30.04,12,4,12,0.01
2013-9-20,85.7,70.1,59.6,54.6,50.4,40.0,73,52,25,30.22,30.09,16,5,16,0.00
2013-9-21,80.7,68.5,58.5,57.1,53.2,46.5,85,61,32,30.20,30.03,15,7,15,0.00
2013-9-22,80.8,67.2,58.5,56.6,51.7,36.7,82,60,31,30.06,29.80,33,10,33,0.09
2013-9-23,76.1,62.1,46.8,43.1,36.5,31.4,73,41,22,30.18,29.95,24,8,24,0.00
2013-9-24,79.1,63.8,50.1,43.1,39.8,35.3,66,44,22,30.27,30.11,13,5,13,0.00
2013-9-25,84.2,66.7,49.0,46.3,41.6,32.2,75,44,16,30.11,29.86,20,6,20,0.00
2013-9-26,84.4,68.4,51.5,44.1,38.4,29.1,64,37,14,29.99,29.87,26,8,26,0.00
2013-9-27,70.5,60.1,46.8,51.0,41.5,32.0,61,50,37,30.15,29.93,29,9,29,0.00
2013-9-28,74.9,54.6,39.3,32.9,26.3,16.8,63,38,13,30.28,30.15,14,5,14,0.00
2013-9-29,81.7,59.4,40.5,33.1,26.7,17.6,64,33,10,30.30,30.13,14,4,14,0.00
2013-9-30,85.3,64.7,44.8,36.4,29.2,22.2,59,29,10,30.16,30.01,20,6,20,0.00
2013-10-1,88.6,66.3,47.1,33.7,27.6,10.8,55,27,6,30.14,30.04,12,4,12,0.00
2013-10-2,83.7,64.2,46.4,35.4,29.8,18.8,52,30,10,30.16,30.01,14,4,14,0.00
2013-10-3,80.3,63.7,46.5,37.3,31.9,23.7,60,33,13,30.07,29.88,20,6,20,0.00
2013-10-4,65.6,56.3,48.4,33.5,20.5,8.6,45,27,12,30.21,29.95,32,15,32,0.00
2013-10-5,65.8,51.7,37.7,24.6,19.9,13.5,57,31,14,30.32,30.21,22,9,22,0.00
2013-10-6,74.8,54.9,37.9,30.4,23.5,19.4,55,32,14,30.37,30.25,16,4,16,0.00
2013-10-7,76.3,57.1,39.6,29.8,24.1,19.6,54,30,13,30.33,30.16,12,4,12,0.00
2013-10-8,78.7,61.5,45.0,33.9,30.7,28.3,55,34,17,30.16,29.96,16,5,16,0.00
2013-10-9,77.5,60.6,44.9,38.2,33.3,27.9,61,38,17,30.06,29.94,20,5,20,0.00
2013-10-10,71.1,54.9,44.2,50.0,36.8,26.8,79,52,28,30.07,29.85,38,10,38,0.11
2013-10-11,65.3,49.4,34.2,35.4,31.6,28.8,83,54,27,30.14,30.05,21,6,21,0.00
2013-10-12,71.8,54.5,37.9,37.5,33.9,31.4,78,49,24,30.23,30.11,14,5,14,0.00
2013-10-13,78.5,63.4,50.8,46.0,39.5,35.0,58,43,22,30.22,30.01,25,10,25,0.00
2013-10-14,72.0,58.9,47.3,45.4,29.9,18.2,63,36,17,30.15,30.06,20,6,20,0.00
2013-10-15,68.1,53.0,38.2,39.0,28.5,22.3,63,41,25,30.17,30.02,26,7,26,0.01
2013-10-16,65.6,51.7,43.2,37.3,28.6,14.2,69,45,18,30.20,30.09,21,8,21,0.00
2013-10-17,69.1,50.1,33.7,24.9,20.3,17.1,61,33,16,30.21,30.03,13,4,13,0.00
2013-10-18,64.3,50.4,35.8,28.8,19.0,13.2,58,32,16,30.22,30.05,28,8,28,0.00
2013-10-19,68.7,48.7,32.2,29.9,23.7,13.8,78,44,14,30.27,30.10,17,5,17,0.00
2013-10-20,73.2,54.1,37.1,24.7,18.7,11.5,49,28,10,30.14,29.97,23,6,23,0.00
2013-10-21,69.9,52.8,41.1,33.3,28.3,18.6,67,41,21,30.24,30.06,14,4,14,0.00
2013-10-22,73.5,51.8,36.6,29.6,25.5,21.8,61,40,16,30.33,30.20,12,3,12,0.00
2013-10-23,71.6,53.4,38.1,34.1,26.2,21.0,54,36,21,30.28,30.15,12,4,12,0.00
2013-10-24,75.6,57.8,43.3,50.2,31.1,24.8,89,39,19,30.30,30.15,18,5,18,0.11
2013-10-25,69.3,54.5,46.6,49.3,46.0,39.4,90,75,41,30.32,30.18,31,7,31,0.08
2013-10-26,72.3,53.2,40.4,46.0,40.9,34.9,94,68,27,30.34,30.25,13,4,13,0.00
2013-10-27,70.1,54.3,40.0,41.8,37.8,33.5,86,58,29,30.29,30.01,13,4,13,0.00
2013-10-28,75.4,56.7,45.4,43.2,35.0,23.8,78,49,21,30.05,29.95,16,4,16,0.00
2013-10-29,70.2,59.0,46.2,30.5,27.0,22.9,50,30,19,30.10,29.92,29,10,29,0.00
2013-10-30,61.8,50.5,40.0,37.9,32.8,26.3,72,52,32,30.07,29.91,26,7,26,0.00
2013-10-31,58.6,45.4,34.8,31.4,27.6,22.6,79,53,27,30.17,30.05,25,8,25,0.00
2013-11-1,63.0,49.3,37.9,30.1,27.4,24.4,66,45,25,30.30,30.12,25,8,25,0.00
2013-11-2,64.9,48.9,35.4,33.6,27.7,24.7,70,47,23,30.35,30.11,17,4,17,0.00
2013-11-3,69.7,54.0,41.8,41.8,32.2,25.4,78,46,23,30.11,29.86,22,6,22,0.00
2013-11-4,68.1,54.8,38.7,43.1,36.1,30.9,75,52,29,30.04,29.87,26,7,26,0.00
2013-11-5,53.8,45.1,32.7,45.5,32.8,17.1,92,64,43,30.28,29.92,31,10,31,0.21
2013-11-6,56.2,41.8,28.6,21.2,16.4,10.0,61,38,18,30.43,30.27,20,6,20,0.00
2013-11-7,64.6,44.6,32.1,27.4,23.5,19.3,74,46,21,30.47,30.29,13,4,13,0.00
2013-11-8,64.3,46.0,29.9,28.8,25.4,21.3,75,48,23,30.30,30.10,14,4,14,0.00
2013-11-9,72.4,50.0,32.1,28.8,25.6,23.5,75,43,17,30.27,30.16,13,3,13,0.00
2013-11-10,71.5,51.3,36.9,30.9,25.9,22.5,61,40,16,30.35,30.24,14,4,14,0.00
2013-11-11,73.0,52.7,38.7,28.2,24.8,20.9,58,36,16,30.39,30.26,12,5,12,0.00
2013-11-12,63.8,49.1,39.1,36.3,32.5,22.1,81,55,32,30.55,30.38,18,6,18,0.00
2013-11-13,57.5,45.1,34.9,38.5,36.1,32.5,92,72,47,30.51,30.19,13,5,13,0.00
2013-11-14,63.9,46.6,35.5,41.6,34.3,25.9,91,65,35,30.19,30.03,12,3,12,0.00
2013-11-15,61.7,45.3,32.4,45.9,34.1,25.4,91,67,38,30.03,29.80,23,6,23,0.04
2013-11-16,62.3,50.8,43.0,44.1,37.0,28.3,89,62,33,29.94,29.77,24,7,24,0.01
2013-11-17,62.3,49.3,34.5,34.8,31.1,27.6,77,51,32,30.17,29.94,20,6,20,0.00
2013-11-18,58.5,43.2,34.3,34.1,30.8,28.1,79,63,37,30.28,30.17,5,1,10,0.00
2013-11-19,63.2,47.2,31.5,35.8,32.4,27.2,84,60,33,30.19,29.96,5,2,11,0.00
2013-11-20,48.7,44.1,39.7,42.9,39.5,31.2,95,85,57,30.04,29.98,6,2,13,0.20
2013-11-21,54.1,46.3,41.1,47.7,43.2,39.5,95,89,76,30.16,30.02,14,4,14,0.29
2013-11-22,43.2,37.4,33.8,41.6,32.3,29.1,94,82,73,30.34,30.14,13,6,13,0.07
2013-11-23,39.7,35.4,30.1,32.8,29.0,24.0,91,78,65,30.39,30.27,20,8,20,0.05
2013-11-24,37.4,29.2,25.1,26.3,23.6,20.9,91,80,58,30.34,30.12,13,5,13,0.09
2013-11-25,48.7,35.3,27.8,34.6,28.4,25.1,94,78,49,30.33,30.09,20,6,20,0.01
2013-11-26,55.4,36.3,25.5,34.2,28.2,23.5,93,75,42,30.42,30.33,8,2,8,0.00
2013-11-27,49.9,36.8,26.0,30.6,27.4,22.9,89,70,44,30.39,30.21,12,4,12,0.00
2013-11-28,55.0,37.9,27.8,29.1,26.5,21.9,88,66,33,30.30,30.20,12,4,12,0.00
2013-11-29,61.7,40.5,27.0,32.4,28.2,23.4,87,65,31,30.36,30.25,9,3,9,0.00
2013-11-30,61.2,42.6,29.2,35.1,31.2,25.5,88,66,36,30.35,30.22,10,4,10,0.00
2013-12-1,50.6,38.4,31.0,34.1,30.4,27.4,90,74,50,30.33,30.24,25,8,25,0.00
2013-12-2,59.0,40.7,31.4,31.6,28.1,25.4,80,63,33,30.24,29.94,20,6,20,0.00
2013-12-3,66.1,47.6,33.8,29.3,22.5,11.1,79,43,12,29.94,29.72,29,8,29,0.00
2013-12-4,60.7,45.6,36.7,33.2,24.7,17.1,70,46,22,29.93,29.70,40,13,40,0.00
2013-12-5,37.4,27.6,16.9,30.5,23.1,11.8,93,83,60,30.01,29.89,17,7,17,0.08
2013-12-6,39.1,24.3,12.1,22.3,14.7,8.9,90,69,39,30.15,30.01,13,4,13,0.05
2013-12-7,30.3,25.7,18.6,26.7,20.0,12.5,90,79,70,30.12,29.89,14,6,14,0.00
2013-12-8,37.7,30.0,25.8,26.4,16.9,9.6,87,59,43,30.02,29.83,29,10,29,0.00
2013-12-9,32.4,25.0,15.8,16.9,9.0,0.6,76,52,28,30.42,30.02,26,10,26,0.00
2013-12-10,40.9,23.4,11.8,10.5,5.2,1.2,66,48,22,30.43,30.23,14,4,14,0.01
2013-12-11,48.3,27.7,15.0,17.1,12.1,7.1,74,54,26,30.46,30.27,13,5,13,0.00
2013-12-12,45.0,33.9,25.1,20.4,15.2,11.2,64,47,30,30.45,30.15,18,6,18,0.00
2013-12-13,47.9,37.2,32.0,33.2,25.3,19.3,78,62,52,30.15,30.00,28,7,28,0.00
2013-12-14,54.2,36.1,24.1,21.4,19.0,16.4,76,51,24,30.39,30.13,26,8,26,0.00
2013-12-15,51.7,36.9,24.9,22.0,19.0,16.2,71,50,29,30.39,30.29,22,7,22,0.00
2013-12-16,60.3,41.1,25.4,24.8,21.5,18.2,76,49,23,30.40,30.29,20,5,20,0.00
2013-12-17,63.8,41.9,28.4,26.7,22.7,19.8,71,49,21,30.43,30.31,13,5,13,0.00
2013-12-18,55.1,39.2,28.1,25.1,22.7,20.2,74,54,28,30.31,29.99,10,4,10,0.00
2013-12-19,59.5,41.2,28.7,26.6,23.8,21.7,75,52,25,29.99,29.79,12,4,12,0.00
2013-12-20,55.6,41.3,29.7,31.6,24.4,20.4,71,54,26,29.88,29.73,15,4,15,0.00
2013-12-21,44.2,38.5,34.8,30.0,27.3,24.9,81,64,53,29.91,29.69,24,10,24,0.12
2013-12-22,51.1,35.4,26.6,26.2,20.0,13.4,80,56,26,30.29,29.91,25,6,25,0.00
2013-12-23,53.9,36.8,26.0,22.4,19.8,16.8,70,52,27,30.43,30.28,14,5,14,0.00
2013-12-24,51.4,38.1,25.3,25.1,22.0,18.8,77,54,32,30.38,30.19,21,6,21,0.00
2013-12-25,54.3,36.2,25.6,23.7,18.2,11.6,68,50,23,30.41,30.29,15,6,15,0.00
2013-12-26,57.0,35.1,20.9,21.8,16.5,12.7,75,50,24,30.39,30.24,12,4,12,0.00
2013-12-27,60.2,37.7,24.7,18.9,15.8,12.8,70,44,17,30.37,30.24,18,5,18,0.00
2013-12-28,48.6,35.3,21.5,20.2,16.8,14.2,75,49,28,30.24,29.98,14,4,14,0.00
2013-12-29,48.7,38.2,26.9,25.1,21.5,17.7,71,52,35,30.22,30.00,14,4,14,0.00
2013-12-30,52.4,37.8,26.1,19.1,13.9,8.2,71,40,18,30.34,30.20,21,5,21,0.00
2013-12-31,52.3,35.6,21.7,20.0,16.1,13.1,70,47,25,30.34,30.17,12,4,12,0.00
2014-1-1,57.3,40.8,28.3,22.9,18.6,16.1,65,43,22,30.31,30.13,28,8,28,0.00
2014-1-2,53.9,36.9,22.1,24.7,17.5,12.5,82,49,21,30.38,30.23,14,4,14,0.00